• In Uzbekistan
  • List of Countries
  • For 7 days
  • Water Temperature
  • Satellite Maps
  • Weather Map
  • Weather Widgets
  • user-avatar
    Login

    Hourly Weather Olpiny

    Today, 21 May, Monday

    Time Temperature Precipitation Wind Pressure Humidity
    00:00 +10°C° 0 mm 1 mps 742 mmHg 88%
    01:00 +10°C° 0 mm 1 mps 742 mmHg 89%
    02:00 +9°C° 0 mm 1 mps 742 mmHg 90%
    03:00 +9°C° 0 mm 1 mps 742 mmHg 90%
    04:00 +8°C° 0 mm 1 mps 742 mmHg 91%
    05:00 +9°C° 0 mm 2 mps 742 mmHg 85%
    06:00 +12°C° 0 mm 2 mps 742 mmHg 79%
    07:00 +14°C° 0 mm 3 mps 742 mmHg 71%
    08:00 +16°C° 0 mm 3 mps 742 mmHg 66%
    09:00 +17°C° 0 mm 4 mps 742 mmHg 60%
    10:00 +17°C° 0 mm 5 mps 742 mmHg 55%
    11:00 +19°C° 0 mm 5 mps 741 mmHg 54%
    12:00 +19°C° 0 mm 5 mps 741 mmHg 54%
    13:00 +20°C° 0 mm 4 mps 740 mmHg 53%
    14:00 +20°C° 0.2 mm 4 mps 740 mmHg 58%
    15:00 +19°C° 0.2 mm 4 mps 740 mmHg 62%
    16:00 +19°C° 0.2 mm 4 mps 740 mmHg 67%
    17:00 +17°C° 0.1 mm 4 mps 739 mmHg 73%
    18:00 +16°C° 0.1 mm 3 mps 739 mmHg 79%
    19:00 +13°C° 0.1 mm 3 mps 739 mmHg 85%
    20:00 +13°C° 0 mm 2 mps 739 mmHg 87%
    21:00 +12°C° 0 mm 2 mps 739 mmHg 88%
    22:00 +10°C° 0 mm 2 mps 739 mmHg 90%
    23:00 +10°C° 0 mm 2 mps 739 mmHg 91%

    Tomorrow, 22 May, Tuesday

    Time Temperature Precipitation Wind Pressure Humidity
    00:00 +10°C° 0 mm 2 mps 738 mmHg 92%
    01:00 +10°C° 0 mm 1 mps 738 mmHg 93%
    02:00 +10°C° 0 mm 1 mps 738 mmHg 93%
    03:00 +10°C° 0 mm 1 mps 738 mmHg 94%
    04:00 +10°C° 0 mm 1 mps 738 mmHg 94%
    05:00 +12°C° 0 mm 2 mps 738 mmHg 90%
    06:00 +14°C° 0 mm 2 mps 738 mmHg 86%
    07:00 +16°C° 0 mm 2 mps 738 mmHg 82%
    08:00 +18°C° 0 mm 2 mps 738 mmHg 75%
    09:00 +20°C° 0 mm 2 mps 738 mmHg 68%
    10:00 +21°C° 0 mm 2 mps 738 mmHg 61%
    11:00 +23°C° 0.1 mm 2 mps 738 mmHg 59%
    12:00 +24°C° 0.1 mm 2 mps 738 mmHg 57%
    13:00 +24°C° 0.1 mm 2 mps 738 mmHg 55%
    14:00 +24°C° 0.3 mm 2 mps 738 mmHg 58%
    15:00 +24°C° 0.3 mm 2 mps 738 mmHg 61%
    16:00 +24°C° 0.3 mm 3 mps 738 mmHg 63%
    17:00 +21°C° 0.2 mm 2 mps 738 mmHg 70%
    18:00 +20°C° 0.2 mm 2 mps 738 mmHg 77%
    19:00 +18°C° 0.2 mm 2 mps 738 mmHg 84%
    20:00 +17°C° 0 mm 2 mps 738 mmHg 87%
    21:00 +17°C° 0 mm 2 mps 738 mmHg 90%
    22:00 +16°C° 0 mm 2 mps 738 mmHg 92%
    23:00 +15°C° 0 mm 2 mps 738 mmHg 93%

    Day after tomorrow, 23 May, Wednesday

    Time Temperature Precipitation Wind Pressure Humidity
    00:00 +15°C° 0 mm 2 mps 739 mmHg 93%
    01:00 +15°C° 0 mm 2 mps 739 mmHg 93%
    02:00 +15°C° 0.2 mm 2 mps 739 mmHg 93%
    03:00 +15°C° 0.2 mm 1 mps 739 mmHg 93%
    04:00 +15°C° 0.2 mm 1 mps 739 mmHg 93%
    05:00 +16°C° 0.4 mm 1 mps 739 mmHg 91%
    06:00 +18°C° 0.4 mm 1 mps 739 mmHg 90%
    07:00 +19°C° 0.4 mm 1 mps 740 mmHg 88%
    08:00 +20°C° 0.9 mm 1 mps 740 mmHg 84%
    09:00 +21°C° 0.9 mm 1 mps 740 mmHg 80%
    10:00 +23°C° 0.9 mm 1 mps 740 mmHg 76%
    11:00 +23°C° 1.1 mm 1 mps 740 mmHg 74%
    12:00 +24°C° 1.1 mm 1 mps 740 mmHg 73%
    13:00 +24°C° 1.1 mm 2 mps 740 mmHg 71%
    14:00 +24°C° 1.5 mm 1 mps 740 mmHg 73%
    15:00 +24°C° 1.5 mm 1 mps 739 mmHg 75%
    16:00 +23°C° 1.5 mm 1 mps 739 mmHg 77%
    17:00 +22°C° 0.8 mm 1 mps 739 mmHg 81%
    18:00 +21°C° 0.8 mm 1 mps 739 mmHg 84%
    19:00 +20°C° 0.8 mm 1 mps 739 mmHg 88%
    20:00 +19°C° 0.2 mm 1 mps 740 mmHg 90%
    21:00 +18°C° 0.2 mm 1 mps 740 mmHg 92%
    22:00 +16°C° 0.2 mm 1 mps 740 mmHg 94%
    23:00 +16°C° 0.4 mm 1 mps 740 mmHg 95%

    24 May, Thursday

    Time Temperature Precipitation Wind Pressure Humidity
    00:00 +16°C° 0.4 mm 2 mps 740 mmHg 96%
    01:00 +15°C° 0.4 mm 2 mps 740 mmHg 97%
    02:00 +16°C° 0.6 mm 2 mps 740 mmHg 97%
    03:00 +16°C° 0.6 mm 2 mps 740 mmHg 98%
    04:00 +16°C° 0.6 mm 2 mps 740 mmHg 98%
    05:00 +16°C° 0.2 mm 2 mps 740 mmHg 97%
    06:00 +17°C° 0.2 mm 3 mps 740 mmHg 96%
    07:00 +17°C° 0.2 mm 3 mps 740 mmHg 95%
    08:00 +18°C° 0.2 mm 3 mps 740 mmHg 91%
    09:00 +19°C° 0.2 mm 4 mps 741 mmHg 88%
    10:00 +20°C° 0.2 mm 4 mps 741 mmHg 84%
    11:00 +20°C° 0.4 mm 4 mps 741 mmHg 84%
    12:00 +20°C° 0.4 mm 5 mps 740 mmHg 83%
    13:00 +21°C° 0.4 mm 5 mps 740 mmHg 82%
    14:00 +21°C° 0.4 mm 5 mps 740 mmHg 82%
    15:00 +21°C° 0.4 mm 5 mps 740 mmHg 82%
    16:00 +21°C° 0.4 mm 5 mps 740 mmHg 82%
    17:00 +20°C° 0.3 mm 4 mps 740 mmHg 85%
    18:00 +19°C° 0.3 mm 4 mps 740 mmHg 88%
    19:00 +18°C° 0.3 mm 3 mps 740 mmHg 91%
    20:00 +17°C° 0.2 mm 3 mps 740 mmHg 93%
    21:00 +16°C° 0.2 mm 2 mps 741 mmHg 94%
    22:00 +15°C° 0.2 mm 2 mps 741 mmHg 96%
    23:00 +15°C° 0 mm 2 mps 741 mmHg 96%

    25 May, Friday

    Time Temperature Precipitation Wind Pressure Humidity
    00:00 +15°C° 0 mm 1 mps 741 mmHg 96%
    01:00 +15°C° 0 mm 1 mps 741 mmHg 96%
    02:00 +14°C° 0 mm 1 mps 741 mmHg 96%
    03:00 +14°C° 0 mm 1 mps 741 mmHg 96%
    04:00 +14°C° 0 mm 1 mps 741 mmHg 96%
    05:00 +15°C° 0 mm 2 mps 741 mmHg 93%
    06:00 +16°C° 0 mm 2 mps 742 mmHg 91%
    07:00 +18°C° 0 mm 3 mps 742 mmHg 88%
    08:00 +19°C° 0.1 mm 4 mps 742 mmHg 82%
    09:00 +20°C° 0.1 mm 4 mps 742 mmHg 77%
    10:00 +22°C° 0.1 mm 5 mps 742 mmHg 71%
    11:00 +22°C° 0.1 mm 5 mps 742 mmHg 68%
    12:00 +23°C° 0.1 mm 5 mps 742 mmHg 64%
    13:00 +23°C° 0.1 mm 5 mps 742 mmHg 60%
    14:00 +23°C° 0 mm 5 mps 742 mmHg 61%
    15:00 +23°C° 0 mm 5 mps 742 mmHg 62%
    16:00 +23°C° 0 mm 5 mps 742 mmHg 63%
    17:00 +22°C° 0 mm 4 mps 742 mmHg 69%
    18:00 +20°C° 0 mm 4 mps 742 mmHg 75%
    19:00 +19°C° 0 mm 3 mps 742 mmHg 81%
    20:00 +18°C° 0 mm 3 mps 742 mmHg 85%
    21:00 +16°C° 0 mm 2 mps 742 mmHg 88%
    22:00 +15°C° 0 mm 2 mps 743 mmHg 92%
    23:00 +15°C° 0 mm 2 mps 743 mmHg 93%

    26 May, Saturday

    Time Temperature Precipitation Wind Pressure Humidity
    00:00 +14°C° 0 mm 2 mps 743 mmHg 93%
    01:00 +14°C° 0 mm 2 mps 743 mmHg 94%
    02:00 +13°C° 0 mm 2 mps 743 mmHg 95%
    03:00 +13°C° 0 mm 2 mps 743 mmHg 95%
    04:00 +13°C° 0 mm 2 mps 743 mmHg 96%
    05:00 +13°C° 0 mm 3 mps 744 mmHg 90%
    06:00 +14°C° 0 mm 3 mps 744 mmHg 85%
    07:00 +17°C° 0 mm 4 mps 744 mmHg 79%
    08:00 +17°C° 0 mm 5 mps 744 mmHg 75%
    09:00 +19°C° 0 mm 5 mps 744 mmHg 70%
    10:00 +21°C° 0 mm 5 mps 744 mmHg 65%
    11:00 +21°C° 0 mm 5 mps 744 mmHg 64%
    12:00 +22°C° 0 mm 5 mps 744 mmHg 62%
    13:00 +22°C° 0 mm 5 mps 744 mmHg 61%
    14:00 +22°C° 0 mm 5 mps 744 mmHg 63%
    15:00 +22°C° 0 mm 5 mps 744 mmHg 64%
    16:00 +22°C° 0 mm 5 mps 744 mmHg 66%
    17:00 +21°C° 0 mm 4 mps 744 mmHg 72%
    18:00 +19°C° 0 mm 4 mps 744 mmHg 78%
    19:00 +18°C° 0 mm 3 mps 744 mmHg 85%
    20:00 +17°C° 0 mm 3 mps 744 mmHg 87%
    21:00 +14°C° 0 mm 3 mps 744 mmHg 89%
    22:00 +14°C° 0 mm 2 mps 744 mmHg 92%
    23:00 +14°C° 0 mm 2 mps 744 mmHg 92%
    Show more